Location: Burbank
(38.7788°N, 114.0429°W)
Time: 12:08:10
(UTC+00:00)

Vanguard 2 - Pass Details

Date: 19 May 2026
Orbit: 553 x 2894 km, 32.9° (Epoch: 11 June)

Event Time Altitude Azimuth Distance (km) Brightness Sun altitude
Rises 04:37:21 0° 178° (S) 5,259 - -18.5°
Reaches altitude 10° 04:43:21 10° 155° (SSE) 4,766 - -19.3°
Maximum altitude 04:49:17 14° 129° (SE) 4,844 - -20.1°
Drops below altitude 10° 04:55:54 10° 104° (ESE) 5,489 - -20.9°
Exits shadow 04:57:33 - 99° (E) 5,712 11.5 -21.1°
Sets 05:03:55 0° 84° (E) 6,713 12.0 -21.9°
